N66M 07FA-KEYW

Flight info

Callsign N66M
Flight time N/A
Altitude 8000
Route FNTSY FNTSY1
Aircraft E55P/M-SBDFGHJ2RWY/LB2

Departure

Time 2026-04-25 21:46
Airport Ocean Reef Club Airport (07FA)

Arrival

Time N/A
Airport Key West International Airport (KEYW)
Time Latitude Longitude Altitude Speed Heading
2026-04-25 21:35 25.32240 -80.27695 7 ft 0 kts 310°
2026-04-25 21:43 25.32241 -80.27696 7 ft 2 kts 310°
2026-04-25 21:43 25.32234 -80.27741 7 ft 7 kts 232°
2026-04-25 21:44 25.32168 -80.27800 7 ft 13 kts 218°
2026-04-25 21:44 25.32094 -80.27868 7 ft 13 kts 220°
2026-04-25 21:44 25.31963 -80.27979 7 ft 3 kts 360°
2026-04-25 21:45 25.31968 -80.27976 7 ft 0 kts 39°
2026-04-25 21:45 25.31971 -80.27975 7 ft 0 kts 39°
2026-04-25 21:45 25.32025 -80.27925 7 ft 42 kts 39°
2026-04-25 21:45 25.32489 -80.27527 7 ft 122 kts 40°
2026-04-25 21:46 25.33172 -80.26941 265 ft 151 kts 40°
2026-04-25 21:46 25.34031 -80.26229 1113 ft 154 kts 40°
2026-04-25 21:46 25.34965 -80.25505 1601 ft 184 kts 39°
2026-04-25 21:46 25.36155 -80.24559 1663 ft 235 kts 40°
2026-04-25 21:47 25.37538 -80.23654 1942 ft 270 kts 19°
2026-04-25 21:47 25.39276 -80.23566 2873 ft 274 kts 348°
2026-04-25 21:47 25.40948 -80.24584 4034 ft 271 kts 321°
2026-04-25 21:47 25.41946 -80.26277 4998 ft 273 kts 284°
2026-04-25 21:48 25.41958 -80.28012 5775 ft 277 kts 256°
2026-04-25 21:48 25.41136 -80.29640 6608 ft 282 kts 227°
2026-04-25 21:48 25.39018 -80.30873 7738 ft 290 kts 197°
2026-04-25 21:48 25.37177 -80.31803 7878 ft 286 kts 220°
2026-04-25 21:49 25.35815 -80.33188 7913 ft 281 kts 225°
2026-04-25 21:49 25.34748 -80.34377 7905 ft 279 kts 228°